Location: Isola Pescaroli
(45.0500°N, 10.1667°E)
Time: 05:25:35
(UTC+00:00)

Sich 1 - Pass Details

Date: 03 March 2021
Orbit: 593 x 626 km, 82.5° (Epoch: 13 April)

Event Time Altitude Azimuth Distance (km) Brightness Sun altitude
Rises 17:27:04 0° 189° (S) 2,871 6.7 -3.9°
Reaches altitude 10° 17:29:16 10° 190° (S) 1,975 5.9 -4.3°
Maximum altitude 17:33:39 84° 276° (W) 632 3.2 -5.1°
Drops below altitude 10° 17:38:07 10° 7° (N) 2,006 5.6 -5.8°
Sets 17:40:22 0° 9° (N) 2,920 6.4 -6.2°
